Flag for Isle of Man Weather past 2 weeks in Ramsey, Isle of Man

Now
57 °F

Passing clouds.


Feels Like: 54 °F
Forecast: 58 / 62 °F
Wind: 16 mph from Southwest

Location: Isle Of Man / Ronaldsway Airport

Current Time: Aug 28, 2015 at 8:40:53 AM

Latest Report: Aug 28, 2015 at 7:50 AM


Visibility: N/A

Pressure: 29.77 "Hg

Humidity: 82%

Dew point: 52 °F

Location of RamseyLocation

Historic Weather in Ramsey — Graph

°F

Ramsey temperature yesterday

Maximum temperature yesterday: 61 °F (at 11:20 AM)
Minimum temperature yesterday: 54 °F (at 5:50 AM)
Average temperature yesterday: 58 °F

Past Weeks' High & Low Weather Summary

 TemperatureHumidityPressure
High68 °F (Aug 18, 4:20 PM)100% (Aug 14, 12:50 AM)30.15 "Hg (Aug 14, 12:50 AM)
Low48 °F (Aug 17, 4:50 AM)52% (Aug 13, 12:20 PM)29.30 "Hg (Aug 26, 7:50 AM)
Average59 °F84%29.79 "Hg
* Reported Aug 13 7:20 AM — Aug 28 7:20 AM, Ramsey, Weather by CustomWeather, © 2015

Note: Actual official high and low records may vary slightly from our data, if they occured in-between our weather recording intervals... More about our weather records

Advertising

Ramsey weather history for previous 24 hours

 ConditionsComfort  
Time TempWeatherWind HumidityBarometerVisibility
7:20 AM
Fri, Aug 28
57 °FPassing clouds.16 mph82%29.77 "HgN/A
6:50 AM57 °FPassing clouds.14 mph82%29.77 "HgN/A
6:20 AM57 °FPassing clouds.15 mph88%29.77 "HgN/A
5:50 AM57 °FPassing clouds.13 mph82%29.74 "HgN/A
4:50 AM57 °FPassing clouds.14 mph82%29.74 "HgN/A
3:50 AM57 °FPassing clouds.16 mph82%29.74 "HgN/A
2:50 AM57 °FPassing clouds.16 mph82%29.74 "HgN/A
1:50 AM57 °FPassing clouds.14 mph82%29.71 "HgN/A
12:50 AM57 °FPassing clouds.13 mph88%29.71 "HgN/A
11:50 PM
Thu, Aug 27
57 °FClear.13 mph88%29.68 "Hg10 mi
10:20 PM57 °FClear.15 mph82%29.65 "Hg10 mi
9:50 PM57 °FPassing clouds.13 mph82%29.65 "HgN/A
9:20 PM57 °FPassing clouds.16 mph82%29.65 "HgN/A
8:50 PM59 °FPassing clouds.14 mph72%29.62 "HgN/A
8:20 PM59 °FPassing clouds.15 mph82%29.62 "HgN/A
7:50 PM59 °FPassing clouds.18 mph82%29.62 "HgN/A
7:20 PM59 °FPassing clouds.22 mph82%29.62 "HgN/A
6:50 PM59 °FPassing clouds.20 mph82%29.62 "HgN/A
6:20 PM59 °FPassing clouds.21 mph82%29.59 "HgN/A
5:50 PM61 °FPassing clouds.21 mph77%29.59 "HgN/A
5:20 PM61 °FPassing clouds.20 mph77%29.59 "HgN/A
4:50 PM61 °FPassing clouds.18 mph77%29.59 "HgN/A
4:20 PM61 °FPassing clouds.20 mph72%29.59 "HgN/A
3:50 PM61 °FPassing clouds.16 mph72%29.59 "HgN/A
3:20 PM61 °FPassing clouds.18 mph72%29.59 "HgN/A
2:50 PM61 °FPassing clouds.18 mph72%29.59 "HgN/A
2:20 PM61 °FPassing clouds.18 mph72%29.59 "HgN/A
1:50 PM61 °FPassing clouds.18 mph72%29.59 "HgN/A
1:20 PM61 °FPassing clouds.16 mph72%29.59 "HgN/A
12:50 PM61 °FPassing clouds.17 mph72%29.56 "HgN/A
12:20 PM61 °FPassing clouds.20 mph68%29.56 "HgN/A
11:50 AM61 °FPassing clouds.21 mph68%29.56 "HgN/A
11:20 AM61 °FPassing clouds.20 mph68%29.56 "HgN/A
10:20 AM59 °FPassing clouds.24 mph72%29.53 "HgN/A
9:50 AM57 °FPassing clouds.21 mph77%29.53 "HgN/A
9:20 AM57 °FScattered clouds.24 mph77%29.53 "HgN/A
8:50 AM57 °FScattered clouds.24 mph77%29.53 "HgN/A
8:20 AM57 °FScattered clouds.24 mph77%29.50 "HgN/A
Weather by CustomWeather, © 2015

See weather overviewHow to use our weather pages